,,,PA_Meas_PMT16A,,PR_Meas_QMR101_102,,RH_Meas_QMH101,,SR_Meas_QMS101,,TA_Meas_QMH101,,GenWind,,GenWind,
date,time,status,PA,status,PR,status,RH,status,SR,status,TA,status,DirAvg,status,SpdAvg,
2009-04-13, 00:00:04,VALID,1008.97,VALID,0,VALID,93.263,VALID,0,VALID,24.7055,VALID,355,VALID,0,
2009-04-13, 00:01:04,VALID,1008.97,VALID,0,VALID,93.2553,VALID,0,VALID,24.7055,VALID,355,VALID,0,
2009-04-13, 00:02:04,VALID,1008.95,VALID,0,VALID,93.2706,VALID,0,VALID,24.7269,VALID,355,VALID,0,
2009-04-13, 00:03:04,VALID,1008.9,VALID,0,VALID,93.2553,VALID,0,VALID,24.7074,VALID,355,VALID,0,
2009-04-13, 00:04:04,VALID,1008.9,VALID,0,VALID,93.2553,VALID,0,VALID,24.7074,VALID,355,VALID,0,
2009-04-13, 00:05:04,VALID,1008.87,VALID,0,VALID,93.2553,VALID,0,VALID,24.686,VALID,355,VALID,0,
2009-04-13, 00:06:04,VALID,1008.84,VALID,0,VALID,93.2706,VALID,0,VALID,24.686,VALID,355,VALID,0,
2009-04-13, 00:07:04,VALID,1008.82,VALID,0,VALID,93.2706,VALID,0,VALID,24.6666,VALID,355,VALID,0,
2009-04-13, 00:08:04,VALID,1008.82,VALID,0,VALID,93.263,VALID,0.105969,VALID,24.6666,VALID,355,VALID,0,
2009-04-13, 00:09:04,VALID,1008.8,VALID,0,VALID,93.2706,VALID,0.105969,VALID,24.6666,VALID,355,VALID,0,
2009-04-13, 00:10:04,VALID,1008.8,VALID,0,VALID,93.2782,VALID,0.105969,VALID,24.6666,VALID,355,VALID,0,
2009-04-13, 00:11:04,VALID,1008.81,VALID,0,VALID,93.263,VALID,0,VALID,24.6666,VALID,355,VALID,0,
2009-04-13, 00:12:04,VALID,1008.8,VALID,0,VALID,93.2782,VALID,0,VALID,24.6471,VALID,355,VALID,0,
2009-04-13, 00:13:04,VALID,1008.77,VALID,0,VALID,93.2706,VALID,0.105969,VALID,24.6471,VALID,355,VALID,0,
2009-04-13, 00:14:04,VALID,1008.77,VALID,0,VALID,93.263,VALID,0,VALID,24.6257,VALID,355,VALID,0,
2009-04-13, 00:15:04,VALID,1008.74,VALID,0,VALID,93.2782,VALID,0,VALID,24.6471,VALID,355,VALID,0,
2009-04-13, 00:16:04,VALID,1008.73,VALID,0,VALID,93.2706,VALID,0.105969,VALID,24.6276,VALID,355,VALID,0,
2009-04-13, 00:17:04,VALID,1008.71,VALID,0,VALID,93.263,VALID,0,VALID,24.6471,VALID,355,VALID,0,
2009-04-13, 00:18:04,VALID,1008.68,VALID,0,VALID,93.2782,VALID,0,VALID,24.6276,VALID,355,VALID,0,
2009-04-13, 00:19:04,VALID,1008.65,VALID,0,VALID,93.2858,VALID,0,VALID,24.6276,VALID,355,VALID,0,
2009-04-13, 00:20:04,VALID,1008.62,VALID,0,VALID,93.2858,VALID,0.105969,VALID,24.6276,VALID,355,VALID,0,
2009-04-13, 00:21:04,VALID,1008.61,VALID,0,VALID,93.2706,VALID,0,VALID,24.6099,VALID,355,VALID,0,
2009-04-13, 00:22:04,VALID,1008.62,VALID,0,VALID,93.2782,VALID,0.105969,VALID,24.6099,VALID,355,VALID,0,
2009-04-13, 00:23:04,VALID,1008.59,VALID,0,VALID,93.2706,VALID,0.105969,VALID,24.5886,VALID,355,VALID,0,
2009-04-13, 00:24:04,VALID,1008.58,VALID,0,VALID,93.3011,VALID,0,VALID,24.5691,VALID,355,VALID,0,
2009-04-13, 00:25:04,VALID,1008.58,VALID,0,VALID,93.2782,VALID,0,VALID,24.5301,VALID,355,VALID,0,
2009-04-13, 00:26:04,VALID,1008.58,VALID,0,VALID,93.2935,VALID,0,VALID,24.5301,VALID,355,VALID,0,
2009-04-13, 00:27:04,VALID,1008.59,VALID,0,VALID,93.2935,VALID,0,VALID,24.5106,VALID,355,VALID,0,
2009-04-13, 00:28:04,VALID,1008.59,VALID,0,VALID,93.3087,VALID,0,VALID,24.5106,VALID,355,VALID,0,
2009-04-13, 00:29:04,VALID,1008.56,VALID,0,VALID,93.2935,VALID,0,VALID,24.4911,VALID,355,VALID,0,
2009-04-13, 00:30:04,VALID,1008.55,VALID,0,VALID,93.2935,VALID,0,VALID,24.5106,VALID,355,VALID,0,
2009-04-13, 00:31:04,VALID,1008.53,VALID,0,VALID,93.263,VALID,0,VALID,24.532,VALID,355,VALID,0,
2009-04-13, 00:32:04,VALID,1008.51,VALID,0,VALID,93.2782,VALID,0,VALID,24.5106,VALID,355,VALID,0,
2009-04-13, 00:33:04,VALID,1008.47,VALID,0,VALID,93.2858,VALID,0,VALID,24.5106,VALID,355,VALID,0,
2009-04-13, 00:34:04,VALID,1008.48,VALID,0,VALID,93.2858,VALID,0,VALID,24.5106,VALID,355,VALID,0,
2009-04-13, 00:35:04,VALID,1008.45,VALID,0,VALID,93.2858,VALID,0,VALID,24.532,VALID,355,VALID,0,
2009-04-13, 00:36:04,VALID,1008.44,VALID,0,VALID,93.2858,VALID,0.105969,VALID,24.5106,VALID,355,VALID,0,
2009-04-13, 00:37:04,VALID,1008.43,VALID,0,VALID,93.2935,VALID,0,VALID,24.5106,VALID,355,VALID,0,
2009-04-13, 00:38:04,VALID,1008.41,VALID,0,VALID,93.3011,VALID,0,VALID,24.5106,VALID,355,VALID,0,
2009-04-13, 00:39:04,VALID,1008.39,VALID,0,VALID,93.3011,VALID,0,VALID,24.5106,VALID,355,VALID,0,
2009-04-13, 00:40:04,VALID,1008.39,VALID,0,VALID,93.3087,VALID,0,VALID,24.5106,VALID,355,VALID,0,
2009-04-13, 00:41:04,VALID,1008.39,VALID,0,VALID,93.2935,VALID,0.105969,VALID,24.5106,VALID,355,VALID,0,
2009-04-13, 00:42:04,VALID,1008.36,VALID,0,VALID,93.3011,VALID,0,VALID,24.4911,VALID,355,VALID,0,
2009-04-13, 00:43:04,VALID,1008.4,VALID,0,VALID,93.2858,VALID,0,VALID,24.4717,VALID,355,VALID,0,
2009-04-13, 00:44:04,VALID,1008.39,VALID,0,VALID,93.2935,VALID,0.105969,VALID,24.4911,VALID,355,VALID,0,
2009-04-13, 00:45:04,VALID,1008.38,VALID,0,VALID,93.2858,VALID,0.105969,VALID,24.4911,VALID,355,VALID,0,
2009-04-13, 00:46:04,VALID,1008.4,VALID,0,VALID,93.2858,VALID,0,VALID,24.4911,VALID,355,VALID,0,
2009-04-13, 00:47:04,VALID,1008.37,VALID,0,VALID,93.2782,VALID,0,VALID,24.4717,VALID,355,VALID,0,
2009-04-13, 00:48:04,VALID,1008.39,VALID,0,VALID,93.3087,VALID,0.105969,VALID,24.4522,VALID,355,VALID,0,
2009-04-13, 00:49:04,VALID,1008.38,VALID,0,VALID,93.3087,VALID,0,VALID,24.4522,VALID,355,VALID,0,
2009-04-13, 00:50:04,VALID,1008.37,VALID,0,VALID,93.2935,VALID,0,VALID,24.4522,VALID,355,VALID,0,
2009-04-13, 00:51:04,VALID,1008.39,VALID,0,VALID,93.2858,VALID,0,VALID,24.4327,VALID,355,VALID,0,
2009-04-13, 00:52:04,VALID,1008.37,VALID,0,VALID,93.3087,VALID,0,VALID,24.4522,VALID,355,VALID,0,
2009-04-13, 00:53:04,VALID,1008.36,VALID,0,VALID,93.3011,VALID,0,VALID,24.4327,VALID,355,VALID,0,
2009-04-13, 00:54:04,VALID,1008.34,VALID,0,VALID,93.2935,VALID,0.105969,VALID,24.4327,VALID,355,VALID,0,
2009-04-13, 00:55:04,VALID,1008.33,VALID,0,VALID,93.3011,VALID,0.105969,VALID,24.4327,VALID,355,VALID,0,
2009-04-13, 00:56:04,VALID,1008.33,VALID,0,VALID,93.3163,VALID,0,VALID,24.4327,VALID,355,VALID,0,
2009-04-13, 00:57:04,VALID,1008.31,VALID,0,VALID,93.3011,VALID,0.105969,VALID,24.4522,VALID,355,VALID,0,
2009-04-13, 00:58:04,VALID,1008.31,VALID,0,VALID,93.2858,VALID,0,VALID,24.4717,VALID,355,VALID,0,
2009-04-13, 00:59:04,VALID,1008.28,VALID,0,VALID,93.3087,VALID,0.105969,VALID,24.5125,VALID,355,VALID,0,
2009-04-13, 01:00:04,VALID,1008.27,VALID,0,VALID,93.2935,VALID,0.105969,VALID,24.493,VALID,355,VALID,0,
2009-04-13, 01:01:04,VALID,1008.24,VALID,0,VALID,93.3011,VALID,0.105969,VALID,24.4911,VALID,355,VALID,0,
2009-04-13, 01:02:04,VALID,1008.22,VALID,0,VALID,93.3087,VALID,0.105969,VALID,24.4911,VALID,355,VALID,0,
2009-04-13, 01:03:04,VALID,1008.22,VALID,0,VALID,93.3087,VALID,0.105969,VALID,24.4911,VALID,355,VALID,0,
2009-04-13, 01:04:04,VALID,1008.22,VALID,0,VALID,93.3163,VALID,0.105969,VALID,24.4911,VALID,355,VALID,0,
2009-04-13, 01:05:04,VALID,1008.2,VALID,0,VALID,93.3087,VALID,0,VALID,24.4911,VALID,355,VALID,0,
2009-04-13, 01:06:04,VALID,1008.21,VALID,0,VALID,93.3087,VALID,0.105969,VALID,24.493,VALID,355,VALID,0,
2009-04-13, 01:07:04,VALID,1008.2,VALID,0,VALID,93.3087,VALID,0,VALID,24.4911,VALID,355,VALID,0,
2009-04-13, 01:08:04,VALID,1008.2,VALID,0,VALID,93.2935,VALID,0.105969,VALID,24.4717,VALID,355,VALID,0,
2009-04-13, 01:09:04,VALID,1008.18,VALID,0,VALID,93.3163,VALID,0,VALID,24.4717,VALID,355,VALID,0,
2009-04-13, 01:10:04,VALID,1008.19,VALID,0,VALID,93.3163,VALID,0,VALID,24.493,VALID,355,VALID,0,
2009-04-13, 01:11:04,VALID,1008.18,VALID,0,VALID,93.3011,VALID,0,VALID,24.4308,VALID,355,VALID,0,
2009-04-13, 01:12:04,VALID,1008.17,VALID,0,VALID,93.3087,VALID,0,VALID,24.4717,VALID,355,VALID,0,
2009-04-13, 01:13:04,VALID,1008.18,VALID,0,VALID,93.324,VALID,0.105969,VALID,24.4717,VALID,355,VALID,0,
2009-04-13, 01:14:04,VALID,1008.16,VALID,0,VALID,93.324,VALID,0,VALID,24.4735,VALID,355,VALID,0,
2009-04-13, 01:15:04,VALID,1008.16,VALID,0,VALID,93.2935,VALID,0,VALID,24.454,VALID,355,VALID,0,
2009-04-13, 01:16:04,VALID,1008.15,VALID,0,VALID,93.3163,VALID,0,VALID,24.4735,VALID,355,VALID,0,
2009-04-13, 01:17:04,VALID,1008.16,VALID,0,VALID,93.3087,VALID,0,VALID,24.454,VALID,355,VALID,0,
2009-04-13, 01:18:04,VALID,1008.15,VALID,0,VALID,93.3011,VALID,0,VALID,24.4735,VALID,355,VALID,0,
2009-04-13, 01:19:04,VALID,1008.14,VALID,0,VALID,93.3087,VALID,0,VALID,24.4754,VALID,355,VALID,0,
2009-04-13, 01:20:04,VALID,1008.13,VALID,0,VALID,93.3087,VALID,0,VALID,24.4327,VALID,355,VALID,0,
2009-04-13, 01:21:04,VALID,1008.12,VALID,0,VALID,93.3163,VALID,0,VALID,24.454,VALID,355,VALID,0,
2009-04-13, 01:22:04,VALID,1008.1,VALID,0,VALID,93.3163,VALID,0,VALID,24.4345,VALID,355,VALID,0,
2009-04-13, 01:23:04,VALID,1008.09,VALID,0,VALID,93.3087,VALID,0,VALID,24.4559,VALID,355,VALID,0,
2009-04-13, 01:24:04,VALID,1008.06,VALID,0,VALID,93.3316,VALID,0,VALID,24.4559,VALID,355,VALID,0,
2009-04-13, 01:25:04,VALID,1008.05,VALID,0,VALID,93.3316,VALID,0,VALID,24.4345,VALID,355,VALID,0,
2009-04-13, 01:26:04,VALID,1008.06,VALID,0,VALID,93.3163,VALID,0,VALID,24.4345,VALID,355,VALID,0,
2009-04-13, 01:27:04,VALID,1008.03,VALID,0,VALID,93.3316,VALID,0,VALID,24.415,VALID,355,VALID,0,
2009-04-13, 01:28:04,VALID,1008.03,VALID,0,VALID,93.3163,VALID,0,VALID,24.3956,VALID,355,VALID,0,
2009-04-13, 01:29:04,VALID,1008.03,VALID,0,VALID,93.324,VALID,0,VALID,24.4132,VALID,355,VALID,0,
2009-04-13, 01:30:04,VALID,1008,VALID,0,VALID,93.3468,VALID,0,VALID,24.4132,VALID,355,VALID,0,
2009-04-13, 01:31:04,VALID,1007.98,VALID,0,VALID,93.324,VALID,0.105969,VALID,24.4132,VALID,355,VALID,0,
2009-04-13, 01:32:04,VALID,1007.98,VALID,0,VALID,93.3316,VALID,0.105969,VALID,24.4132,VALID,355,VALID,0,
2009-04-13, 01:33:04,VALID,1007.99,VALID,0,VALID,93.3087,VALID,0.105969,VALID,24.4132,VALID,355,VALID,0,
2009-04-13, 01:34:04,VALID,1008,VALID,0,VALID,93.3087,VALID,0,VALID,24.3937,VALID,355,VALID,0,
2009-04-13, 01:35:04,VALID,1007.99,VALID,0,VALID,93.3087,VALID,0,VALID,24.415,VALID,355,VALID,0,
2009-04-13, 01:36:04,VALID,1007.99,VALID,0,VALID,93.3163,VALID,0,VALID,24.4132,VALID,355,VALID,0,
2009-04-13, 01:37:04,VALID,1007.98,VALID,0,VALID,93.3316,VALID,0,VALID,24.4132,VALID,355,VALID,0,
2009-04-13, 01:38:04,VALID,1008,VALID,0,VALID,93.3163,VALID,0.105969,VALID,24.4132,VALID,355,VALID,0,
2009-04-13, 01:39:04,VALID,1008.02,VALID,0,VALID,93.3163,VALID,0,VALID,24.4345,VALID,355,VALID,0,
2009-04-13, 01:40:04,VALID,1007.99,VALID,0,VALID,93.3316,VALID,0.105969,VALID,24.4132,VALID,355,VALID,0,
2009-04-13, 01:41:04,VALID,1007.98,VALID,0,VALID,93.3392,VALID,0.105969,VALID,24.4132,VALID,355,VALID,0,
2009-04-13, 01:42:04,VALID,1007.96,VALID,0,VALID,93.324,VALID,0.105969,VALID,24.4327,VALID,355,VALID,0,
2009-04-13, 01:43:04,VALID,1007.97,VALID,0,VALID,93.324,VALID,0,VALID,24.4132,VALID,355,VALID,0,
2009-04-13, 01:44:04,VALID,1007.97,VALID,0,VALID,93.3316,VALID,0,VALID,24.4327,VALID,355,VALID,0,
2009-04-13, 01:45:04,VALID,1007.95,VALID,0,VALID,93.3316,VALID,0.105969,VALID,24.4327,VALID,355,VALID,0,
2009-04-13, 01:46:04,VALID,1007.94,VALID,0,VALID,93.3163,VALID,0,VALID,24.4327,VALID,355,VALID,0,
2009-04-13, 01:47:04,VALID,1007.9,VALID,0,VALID,93.3316,VALID,0,VALID,24.4132,VALID,355,VALID,0,
2009-04-13, 01:48:04,VALID,1007.88,VALID,0,VALID,93.3316,VALID,0,VALID,24.454,VALID,355,VALID,0,
2009-04-13, 01:49:04,VALID,1007.86,VALID,0,VALID,93.3316,VALID,0,VALID,24.4327,VALID,355,VALID,0,
2009-04-13, 01:50:04,VALID,1007.8,VALID,0,VALID,93.3316,VALID,0.105969,VALID,24.4132,VALID,355,VALID,0,
2009-04-13, 01:51:04,VALID,1007.79,VALID,0,VALID,93.3316,VALID,0,VALID,24.4132,VALID,355,VALID,0,
2009-04-13, 01:52:04,VALID,1007.74,VALID,0,VALID,93.3163,VALID,0.105969,VALID,24.4132,VALID,355,VALID,0,
2009-04-13, 01:53:04,VALID,1007.68,VALID,0,VALID,93.3316,VALID,0,VALID,24.415,VALID,355,VALID,0,
2009-04-13, 01:54:04,VALID,1007.63,VALID,0,VALID,93.324,VALID,0.105969,VALID,24.4132,VALID,355,VALID,0,
2009-04-13, 01:55:04,VALID,1007.61,VALID,0,VALID,93.3468,VALID,0,VALID,24.4345,VALID,355,VALID,0,
2009-04-13, 01:56:04,VALID,1007.59,VALID,0,VALID,93.3392,VALID,0.105969,VALID,24.4132,VALID,355,VALID,0,
2009-04-13, 01:57:04,VALID,1007.58,VALID,0,VALID,93.324,VALID,0,VALID,24.4345,VALID,355,VALID,0,
2009-04-13, 01:58:04,VALID,1007.57,VALID,0,VALID,93.3392,VALID,0,VALID,24.4132,VALID,355,VALID,0,
2009-04-13, 01:59:04,VALID,1007.52,VALID,0,VALID,93.3392,VALID,0.105969,VALID,24.4327,VALID,355,VALID,0,
2009-04-13, 02:00:04,VALID,1007.53,VALID,0,VALID,93.3621,VALID,0.105969,VALID,24.4327,VALID,355,VALID,0,
2009-04-13, 02:01:04,VALID,1007.51,VALID,0,VALID,93.3468,VALID,0,VALID,24.4132,VALID,355,VALID,0,
2009-04-13, 02:02:04,VALID,1007.49,VALID,0,VALID,93.3545,VALID,0.105969,VALID,24.3742,VALID,355,VALID,0,
2009-04-13, 02:03:04,VALID,1007.46,VALID,0,VALID,93.3392,VALID,0.105969,VALID,24.3742,VALID,355,VALID,0,
2009-04-13, 02:04:04,VALID,1007.45,VALID,0,VALID,93.3316,VALID,0,VALID,24.3742,VALID,355,VALID,0,
2009-04-13, 02:05:04,VALID,1007.46,VALID,0,VALID,93.3316,VALID,0.105969,VALID,24.3547,VALID,355,VALID,0,
2009-04-13, 02:06:04,VALID,1007.43,VALID,0,VALID,93.3545,VALID,0,VALID,24.3761,VALID,355,VALID,0,
2009-04-13, 02:07:04,VALID,1007.43,VALID,0,VALID,93.3468,VALID,0.105969,VALID,24.3352,VALID,355,VALID,0,
2009-04-13, 02:08:04,VALID,1007.42,VALID,0,VALID,93.3316,VALID,0,VALID,24.3352,VALID,355,VALID,0,
2009-04-13, 02:09:04,VALID,1007.4,VALID,0,VALID,93.3468,VALID,0,VALID,24.3761,VALID,355,VALID,0,
2009-04-13, 02:10:04,VALID,1007.41,VALID,0,VALID,93.3545,VALID,0.105969,VALID,24.3742,VALID,355,VALID,0,
2009-04-13, 02:11:04,VALID,1007.4,VALID,0,VALID,93.3468,VALID,0,VALID,24.3547,VALID,355,VALID,0,
2009-04-13, 02:12:04,VALID,1007.4,VALID,0,VALID,93.3316,VALID,0.105969,VALID,24.3547,VALID,355,VALID,0,
2009-04-13, 02:13:04,VALID,1007.4,VALID,0,VALID,93.3392,VALID,0,VALID,24.3352,VALID,355,VALID,0,
2009-04-13, 02:14:04,VALID,1007.39,VALID,0,VALID,93.3468,VALID,0.105969,VALID,24.3158,VALID,355,VALID,0,
2009-04-13, 02:15:04,VALID,1007.37,VALID,0,VALID,93.3545,VALID,0,VALID,24.3158,VALID,355,VALID,0,
2009-04-13, 02:16:04,VALID,1007.38,VALID,0,VALID,93.3468,VALID,0.105969,VALID,24.3158,VALID,355,VALID,0,
2009-04-13, 02:17:04,VALID,1007.38,VALID,0,VALID,93.3392,VALID,0.105969,VALID,24.3158,VALID,355,VALID,0,
2009-04-13, 02:18:04,VALID,1007.37,VALID,0,VALID,93.3468,VALID,0,VALID,24.3158,VALID,355,VALID,0,
2009-04-13, 02:19:04,VALID,1007.36,VALID,0,VALID,93.3468,VALID,0.105969,VALID,24.3158,VALID,356,VALID,0,
2009-04-13, 02:20:04,VALID,1007.35,VALID,0,VALID,93.3621,VALID,0.105969,VALID,24.3352,VALID,65,VALID,0.346094,
2009-04-13, 02:21:04,VALID,1007.35,VALID,0,VALID,93.3468,VALID,0.105969,VALID,24.3352,VALID,67,VALID,0.510547,
2009-04-13, 02:22:04,VALID,1007.36,VALID,0,VALID,93.3545,VALID,0.105969,VALID,24.3352,VALID,67,VALID,0.264062,
2009-04-13, 02:23:04,VALID,1007.33,VALID,0,VALID,93.3545,VALID,0,VALID,24.3547,VALID,68,VALID,0.00585938,
2009-04-13, 02:24:04,VALID,1007.35,VALID,0,VALID,93.3621,VALID,0.105969,VALID,24.3352,VALID,68,VALID,0.214844,
2009-04-13, 02:25:04,VALID,1007.31,VALID,0,VALID,93.3468,VALID,0,VALID,24.3352,VALID,67,VALID,0,
2009-04-13, 02:26:04,VALID,1007.31,VALID,0,VALID,93.3545,VALID,0.105969,VALID,24.3352,VALID,67,VALID,0.00078125,
2009-04-13, 02:27:04,VALID,1007.28,VALID,0,VALID,93.3697,VALID,0.105969,VALID,24.3352,VALID,67,VALID,0,
2009-04-13, 02:28:04,VALID,1007.27,VALID,0,VALID,93.3697,VALID,0.105969,VALID,24.3352,VALID,67,VALID,0.0777344,
2009-04-13, 02:29:04,VALID,1007.27,VALID,0,VALID,93.3621,VALID,0.105969,VALID,24.3158,VALID,67,VALID,0.0117188,
2009-04-13, 02:30:04,VALID,1007.26,VALID,0,VALID,93.3697,VALID,0.105969,VALID,24.3158,VALID,67,VALID,0,
2009-04-13, 02:31:04,VALID,1007.21,VALID,0,VALID,93.3697,VALID,0.105969,VALID,24.3158,VALID,67,VALID,0,
2009-04-13, 02:32:04,VALID,1007.23,VALID,0,VALID,93.3697,VALID,0,VALID,24.3158,VALID,67,VALID,0,
2009-04-13, 02:33:04,VALID,1007.22,VALID,0,VALID,93.3697,VALID,0,VALID,24.3158,VALID,67,VALID,0,
2009-04-13, 02:34:04,VALID,1007.2,VALID,0,VALID,93.3926,VALID,0,VALID,24.3158,VALID,67,VALID,0,
2009-04-13, 02:35:04,VALID,1007.16,VALID,0,VALID,93.3773,VALID,0.105969,VALID,24.2944,VALID,67,VALID,0,
2009-04-13, 02:36:04,VALID,1007.16,VALID,0,VALID,93.3697,VALID,0,VALID,24.3158,VALID,67,VALID,0,
2009-04-13, 02:37:04,VALID,1007.16,VALID,0,VALID,93.3773,VALID,0,VALID,24.3158,VALID,67,VALID,0,
2009-04-13, 02:38:04,VALID,1007.11,VALID,0,VALID,93.3621,VALID,0.105969,VALID,24.3158,VALID,67,VALID,0,
2009-04-13, 02:39:04,VALID,1007.11,VALID,0,VALID,93.3926,VALID,0.105969,VALID,24.3176,VALID,67,VALID,0,
2009-04-13, 02:40:04,VALID,1007.09,VALID,0,VALID,93.3926,VALID,0,VALID,24.2963,VALID,67,VALID,0,
2009-04-13, 02:41:04,VALID,1007.09,VALID,0,VALID,93.385,VALID,0.105969,VALID,24.3158,VALID,67,VALID,0,
2009-04-13, 02:42:04,VALID,1007.05,VALID,0,VALID,93.3926,VALID,0.105969,VALID,24.3158,VALID,67,VALID,0,
2009-04-13, 02:43:04,VALID,1007.07,VALID,0,VALID,93.3926,VALID,0,VALID,24.2963,VALID,67,VALID,0.450391,
2009-04-13, 02:44:04,VALID,1007.03,VALID,0,VALID,93.3926,VALID,0,VALID,24.2963,VALID,67,VALID,0.258984,
2009-04-13, 02:45:04,VALID,1007.01,VALID,0,VALID,93.385,VALID,0.105969,VALID,24.2963,VALID,67,VALID,0.395703,
2009-04-13, 02:46:04,VALID,1007,VALID,0,VALID,93.4002,VALID,0.105969,VALID,24.2963,VALID,67,VALID,0.361719,
2009-04-13, 02:47:04,VALID,1006.98,VALID,0,VALID,93.385,VALID,0.105969,VALID,24.3158,VALID,67,VALID,0.547266,
2009-04-13, 02:48:04,VALID,1006.94,VALID,0,VALID,93.3926,VALID,0.105969,VALID,24.3352,VALID,67,VALID,0.379297,
2009-04-13, 02:49:04,VALID,1006.95,VALID,0,VALID,93.4002,VALID,0.105969,VALID,24.3158,VALID,67,VALID,0.00195313,
2009-04-13, 02:50:04,VALID,1006.94,VALID,0,VALID,93.4155,VALID,0.105969,VALID,24.3352,VALID,68,VALID,0,
2009-04-13, 02:51:04,VALID,1006.92,VALID,0,VALID,93.4079,VALID,0.105969,VALID,24.3158,VALID,68,VALID,0,
2009-04-13, 02:52:04,VALID,1006.9,VALID,0,VALID,93.4155,VALID,0,VALID,24.3158,VALID,69,VALID,0,
2009-04-13, 02:53:04,VALID,1006.87,VALID,0,VALID,93.4079,VALID,0,VALID,24.3158,VALID,69,VALID,0,
2009-04-13, 02:54:04,VALID,1006.85,VALID,0,VALID,93.4079,VALID,0,VALID,24.3158,VALID,69,VALID,0,
2009-04-13, 02:55:04,VALID,1006.81,VALID,0,VALID,93.4155,VALID,0,VALID,24.3158,VALID,69,VALID,0,
2009-04-13, 02:56:04,VALID,1006.83,VALID,0,VALID,93.4307,VALID,0.105969,VALID,24.3158,VALID,69,VALID,0,
2009-04-13, 02:57:04,VALID,1006.81,VALID,0,VALID,93.4155,VALID,0.105969,VALID,24.3352,VALID,69,VALID,0,
2009-04-13, 02:58:04,VALID,1006.8,VALID,0,VALID,93.4155,VALID,0.105969,VALID,24.2944,VALID,69,VALID,0,
2009-04-13, 02:59:04,VALID,1006.77,VALID,0,VALID,93.4155,VALID,0.105969,VALID,24.3158,VALID,69,VALID,0,
2009-04-13, 03:00:04,VALID,1006.76,VALID,0,VALID,93.4002,VALID,0.105969,VALID,24.3158,VALID,69,VALID,0,
2009-04-13, 03:01:04,VALID,1006.76,VALID,0,VALID,93.4231,VALID,0.105969,VALID,24.3158,VALID,69,VALID,0,
2009-04-13, 03:02:04,VALID,1006.76,VALID,0,VALID,93.4079,VALID,0,VALID,24.3158,VALID,69,VALID,0,
2009-04-13, 03:03:04,VALID,1006.75,VALID,0,VALID,93.4155,VALID,0,VALID,24.2944,VALID,69,VALID,0,
2009-04-13, 03:04:04,VALID,1006.75,VALID,0,VALID,93.4155,VALID,0,VALID,24.3158,VALID,69,VALID,0,
2009-04-13, 03:05:04,VALID,1006.73,VALID,0,VALID,93.4231,VALID,0.105969,VALID,24.2944,VALID,69,VALID,0,
2009-04-13, 03:06:04,VALID,1006.73,VALID,0,VALID,93.4155,VALID,0.105969,VALID,24.3352,VALID,69,VALID,0,
2009-04-13, 03:07:04,VALID,1006.71,VALID,0,VALID,93.4384,VALID,0.105969,VALID,24.3158,VALID,69,VALID,0,
2009-04-13, 03:08:04,VALID,1006.71,VALID,0,VALID,93.4155,VALID,0,VALID,24.3761,VALID,69,VALID,0,
2009-04-13, 03:09:04,VALID,1006.7,VALID,0,VALID,93.4307,VALID,0.105969,VALID,24.3352,VALID,69,VALID,0,
2009-04-13, 03:10:04,VALID,1006.68,VALID,0,VALID,93.4307,VALID,0,VALID,24.3352,VALID,69,VALID,0,
2009-04-13, 03:11:04,VALID,1006.68,VALID,0,VALID,93.4231,VALID,0,VALID,24.3547,VALID,69,VALID,0,
2009-04-13, 03:12:04,VALID,1006.66,VALID,0,VALID,93.4231,VALID,0.105969,VALID,24.3352,VALID,86,VALID,0,
2009-04-13, 03:13:04,VALID,1006.65,VALID,0,VALID,93.4155,VALID,0,VALID,24.3352,VALID,88,VALID,0,
2009-04-13, 03:14:04,VALID,1006.63,VALID,0,VALID,93.4384,VALID,0,VALID,24.3352,VALID,90,VALID,0,
2009-04-13, 03:15:04,VALID,1006.67,VALID,0,VALID,93.4307,VALID,0.105969,VALID,24.3158,VALID,90,VALID,0,
2009-04-13, 03:16:04,VALID,1006.67,VALID,0,VALID,93.4536,VALID,0,VALID,24.3352,VALID,90,VALID,0,
2009-04-13, 03:17:04,VALID,1006.66,VALID,0,VALID,93.4384,VALID,0.105969,VALID,24.3566,VALID,90,VALID,0,
2009-04-13, 03:18:04,VALID,1006.66,VALID,0,VALID,93.4307,VALID,0.105969,VALID,24.3352,VALID,102,VALID,0,
2009-04-13, 03:19:04,VALID,1006.65,VALID,0,VALID,93.4155,VALID,0.105969,VALID,24.3158,VALID,102,VALID,0,
2009-04-13, 03:20:04,VALID,1006.63,VALID,0,VALID,93.4384,VALID,0,VALID,24.3352,VALID,102,VALID,0,
2009-04-13, 03:21:05,VALID,1006.6,VALID,0,VALID,93.4155,VALID,0.105969,VALID,24.3158,VALID,102,VALID,0,
2009-04-13, 03:22:05,VALID,1006.62,VALID,0,VALID,93.4231,VALID,0,VALID,24.3352,VALID,95,VALID,0,
2009-04-13, 03:23:05,VALID,1006.62,VALID,0,VALID,93.4231,VALID,0,VALID,24.3352,VALID,95,VALID,0,
2009-04-13, 03:24:05,VALID,1006.61,VALID,0,VALID,93.4231,VALID,0.105969,VALID,24.3352,VALID,95,VALID,0,
2009-04-13, 03:25:05,VALID,1006.61,VALID,0,VALID,93.3926,VALID,0.105969,VALID,24.3352,VALID,119,VALID,0,
2009-04-13, 03:26:05,VALID,1006.59,VALID,0,VALID,93.4231,VALID,0.105969,VALID,24.3158,VALID,125,VALID,0,
2009-04-13, 03:27:05,VALID,1006.63,VALID,0,VALID,93.4079,VALID,0.105969,VALID,24.3371,VALID,128,VALID,0,
2009-04-13, 03:28:05,VALID,1006.64,VALID,0,VALID,93.3926,VALID,0,VALID,24.2963,VALID,155,VALID,0,
2009-04-13, 03:29:05,VALID,1006.65,VALID,0,VALID,93.3926,VALID,0,VALID,24.2981,VALID,141,VALID,0,
2009-04-13, 03:30:05,VALID,1006.61,VALID,0,VALID,93.4155,VALID,0,VALID,24.2768,VALID,141,VALID,0,
2009-04-13, 03:31:05,VALID,1006.62,VALID,0,VALID,93.4079,VALID,0.105969,VALID,24.2768,VALID,127,VALID,0,
2009-04-13, 03:32:05,VALID,1006.61,VALID,0,VALID,93.4079,VALID,0,VALID,24.2573,VALID,127,VALID,0,
2009-04-13, 03:33:05,VALID,1006.6,VALID,0,VALID,93.4079,VALID,0,VALID,24.2573,VALID,121,VALID,0,
2009-04-13, 03:34:05,VALID,1006.6,VALID,0,VALID,93.3773,VALID,0,VALID,24.2573,VALID,116,VALID,0,
2009-04-13, 03:35:05,VALID,1006.64,VALID,0,VALID,93.4155,VALID,0.105969,VALID,24.2573,VALID,135,VALID,0,
2009-04-13, 03:36:05,VALID,1006.62,VALID,0,VALID,93.4155,VALID,0.105969,VALID,24.2981,VALID,137,VALID,0,
2009-04-13, 03:37:05,VALID,1006.61,VALID,0,VALID,93.385,VALID,0.105969,VALID,24.2768,VALID,102,VALID,0,
2009-04-13, 03:38:05,VALID,1006.64,VALID,0,VALID,93.4307,VALID,0.105969,VALID,24.2768,VALID,98,VALID,0,
2009-04-13, 03:39:05,VALID,1006.63,VALID,0,VALID,93.4231,VALID,0,VALID,24.2768,VALID,99,VALID,0,
2009-04-13, 03:40:05,VALID,1006.61,VALID,0,VALID,93.4079,VALID,0,VALID,24.2768,VALID,99,VALID,0,
2009-04-13, 03:41:05,VALID,1006.6,VALID,0,VALID,93.4231,VALID,0.105969,VALID,24.2981,VALID,99,VALID,0,
2009-04-13, 03:42:05,VALID,1006.58,VALID,0,VALID,93.4079,VALID,0.105969,VALID,24.2963,VALID,87,VALID,0,
2009-04-13, 03:43:05,VALID,1006.58,VALID,0,VALID,93.4079,VALID,0,VALID,24.2963,VALID,84,VALID,0,
2009-04-13, 03:44:05,VALID,1006.59,VALID,0,VALID,93.4231,VALID,0,VALID,24.3158,VALID,84,VALID,0,
2009-04-13, 03:45:05,VALID,1006.6,VALID,0,VALID,93.4231,VALID,0,VALID,24.2963,VALID,84,VALID,0,
2009-04-13, 03:46:05,VALID,1006.57,VALID,0,VALID,93.4231,VALID,0.105969,VALID,24.3158,VALID,84,VALID,0,
2009-04-13, 03:47:05,VALID,1006.58,VALID,0,VALID,93.4307,VALID,0,VALID,24.3158,VALID,83,VALID,0,
2009-04-13, 03:48:05,VALID,1006.56,VALID,0,VALID,93.4307,VALID,0,VALID,24.2963,VALID,69,VALID,0,
2009-04-13, 03:49:05,VALID,1006.56,VALID,0,VALID,93.4307,VALID,0,VALID,24.2963,VALID,68,VALID,0,
2009-04-13, 03:50:05,VALID,1006.59,VALID,0,VALID,93.4079,VALID,0,VALID,24.3176,VALID,58,VALID,0,
2009-04-13, 03:51:05,VALID,1006.58,VALID,0,VALID,93.4384,VALID,0,VALID,24.2963,VALID,58,VALID,0,
2009-04-13, 03:52:05,VALID,1006.62,VALID,0,VALID,93.4307,VALID,0,VALID,24.3176,VALID,58,VALID,0,